Regional Weather Roundup
Issued by NWS Newport/Morehead, NC

Current Version | Previous Version | Graphics & Text | Print | Product List | Glossary On
Versions: 1 2 3 4 5 6 7 8 9 10 11 12 13 14 15 16 17 18 19 20 21 22 23 24 25 26 27 28 29 30 31 32 33 34 35 36 37 38 39 40 41 42 43 44 45 46 47 48 49 50
000 ASUS42 KMHX 221810 RWRMHX WEATHER ROUNDUP FOR EASTERN NORTH CAROLINA NATIONAL WEATHER SERVICE NEWPORT/MOREHEAD CITY NC 200 PM EDT MON SEP 22 2014 NOTE: "FAIR" INDICATES FEW OR NO CLOUDS BELOW 12,000 FEET WITH NO SIGNIFICANT WEATHER AND/OR OBSTRUCTIONS TO VISIBILITY NCZ015>017-031-032-045>047-102-103-221900- NORTH COAST CITY SKY/WX TMP DP RH WIND PRES REMARKS EDENTON MOSUNNY 78 55 45 N3 30.01F ELIZABETH CITY SUNNY 78 53 41 NE3 30.00F KITTY HAWK PTCLDY 75 58 55 NE6 29.99F MANTEO MOSUNNY 75 60 58 NE12 30.01S $$ NCZ045>047-081-094-103-104-221900- CENTRAL COAST CITY SKY/WX TMP DP RH WIND PRES REMARKS FRISCO MOSUNNY 77 64 64 N9 30.00R SWANQUARTER N/A 77 N/A N/A NE5 29.97S $$ NCZ095-097-098-100-101-221900- SOUTHERN COAST CITY SKY/WX TMP DP RH WIND PRES REMARKS BEAUFORT PTSUNNY 80 62 54 N7 29.99F CEDAR ISLAND N/A 77 N/A N/A NW12G17 30.06S JACKSONVILLE CLOUDY 76 58 53 N9 30.00F NEWPORT NOT AVBL PINEY ISLAND MOCLDY 80 57 45 N10 29.99F WILMINGTON PTSUNNY 77 61 57 N6 30.01S $$ NCZ011>013-027>030-043-044-078>080-089-090>093-098-221900- COASTAL PLAIN CITY SKY/WX TMP DP RH WIND PRES REMARKS AHOSKIE SUNNY 76 52 43 CALM 30.02F CLINTON SUNNY 78 56 46 E6 30.03S ELIZABETHTOWN MOSUNNY 77 56 48 CALM 30.03S GOLDSBORO MOSUNNY 78 58 51 CALM 30.00F GREENVILLE MOSUNNY 77 55 47 N6 30.03F HAVELOCK PTSUNNY 76 59 55 N7 30.00F KENANSVILLE MOSUNNY 76 56 48 N7 30.02F KINSTON MOSUNNY 77 55 47 NE7 30.02F NEW BERN PTSUNNY 78 59 51 N8 30.02F RICHLANDS CLOUDY 75 54 46 NW8 30.01F ROANOKE RAPIDS NOT AVBL ROCKY MOUNT SUNNY 78 53 41 N9 30.02F WASHINGTON PTSUNNY 76 56 51 N6 30.01F WHITEVILLE MOSUNNY 77 59 53 N5 30.02S $$ AMZ130-135-150-152-154-156-158-170-250-252-270-ANZ085-086-088-633-658-670-221900- MARINE OBSERVATIONS STATION/POSITION TIME TEMP WIND PRES WAVE SWELL AIR SEA DIR/SP/G HT/PER HT/PER (UTC) (F) (DEG/KT/KT) (MB) (FT/S) (FT/S) CHESAPEAKE LIGHT 1700 71 340/ 11/ 12 1016.8 BUOY 44014 1800 71 77 340/ 12/ 16 1015.5 5/10 3/10 DUCK 1800 72 75 20/ 11/ 13 1015.4 2E DUCK 1700 N/A 3/10 OREGON INLET 1800 74 75 10/ 10/ 14 1015.9 BUOY 44095 1800 75 N/A 4/ 9 20E OREGON INLET NOT AVBL HATTERAS CG NOT AVBL DIAMOND BUOY 1800 76 360/ 14/ 17 1015.6 4/ 8 3/ 8 CAPE LOOKOUT 1800 79 20/ 9/ 11 1015.6 BEAUFORT LAB 1800 78 76 10/ 9/ 10 1015.3 30 SE NEW RIVER 1800 78 82 20/ 10/ 12 1015.5 4/ 8 3/ 8 5 SE WRIGHTSVILL 1700 74 79 50/ 12/ 14 N/A BUOY 41002 1748 80 81 220/ 6/ 8 1018.2 4/ 7 3/ 7 BUOY 41004 1800 80 82 240/ 10/ 12 1015.5 3/ 5 3/ 5 $$

USA.gov is the U.S. government's official web portal to all federal, state and local government web resources and services.